534  
ASUS43 KFSD 210710  
RWRFSD  
 
WEATHER ROUNDUP FOR SE SOUTH DAKOTA/SW MINNESOTA/NW IOWA  
NATIONAL WEATHER SERVICE SIOUX FALLS SD  
200 AM CDT SAT SEP 21 2019  
 
NOTE: "FAIR" INDICATES FEW OR NO CLOUDS BELOW 12,000 FEET WITH NO  
SIGNIFICANT WEATHER AND OR S TO VISIBILITY
.  
 
 
SDZ038>040-050-052>070-210800-  
SOUTHEAST SOUTH DAKOTA  
 
CITY SKY/WX TMP DP RH WIND PRES REMARKS
 
BROOKINGS CLOUDY 71 69 93 S21G28 29.79F  
CHAMBERLAIN CLOUDY 73 73 100 SE9 29.71F  
HURON PTCLDY 72 66 81 S16 29.71S  
MADISON MOCLDY 68 68 100 S16G23 29.80F  
MITCHELL FAIR 73 66 78 S16G26 29.73F  
SIOUX FALLS CLOUDY 72 67 84 S13 29.81F  
WINNER MOCLDY 72 65 78 S8 29.71F  
YANKTON CLOUDY 71 68 90 SE12 29.79S  

 
 
MNZ071-072-080-081-089-090-097-098-210800-  
SOUTHWEST MINNESOTA  
 
CITY SKY/WX TMP DP RH WIND PRES REMARKS
 
FAIRMONT CLOUDY 73 68 84 S14 29.88S  
JACKSON MOCLDY 72 64 78 S13 29.88S  
LUVERNE CLOUDY 70 63 78 S10 29.85S  
MARSHALL CLOUDY 74 67 78 S14G22 29.81F  
MONTEVIDEO CLOUDY 73 64 73 S6 29.81S  
REDWOOD FALLS CLOUDY 73 68 84 S13 29.83F  
TRACY MOCLDY 73 68 83 S13 29.82F  
WORTHINGTON CLOUDY 72 67 84 S10 29.87S  

 
 
IAZ001>003-012>014-020>022-031-032-NEZ013-014-SDZ071-210800-  
NORTHWEST IOWA  
 
CITY SKY/WX TMP DP RH WIND PRES REMARKS
 
CHEROKEE CLOUDY 72 69 89 S13G21 29.87S  
DENISON CLOUDY 72 72 100 S12G23 29.90F  
ESTHERVILLE CLOUDY 70 66 87 S12 29.88R  
LE MARS CLOUDY 72 70 94 S13G20 29.84F  
MAURICE N/A 72 70 94 S14G20 29.84S  
SIOUX CITY CLOUDY 71 68 90 S14 29.84F  
SPENCER CLOUDY 75 66 73 S15G26 29.88S  
STORM LAKE CLOUDY 72 68 88 S16G23 29.86F  

 
 
ABBREVIATIONS USED IN REMARKS  
TC - TEMPERATURE IN CELSIUS  
WCI - WIND CHILL INDEX  
HX - HEAT INDEX  
VSB - VISIBILITY  
 
 
 
CLICK HERE TO GO TO PREVIOUS BULLETINS.

The Nexlab SD Page
The Nexlab IA Page
The Nexlab MN Page
The Nexlab NE Page Main Text Page